Погода в Бе-Комо

Канада     49°12′40″N   68°10′41″W
темп.,
°C
ветер,
м/с
пор.,
м/с
влажн.,
%
обл.,
%
осадки,
мм/ч
давл.,
гПа
погр.,
м
13 мая, чт
чт1323:00+4сз227473 0.0 101824
02:00+3сз227844 0.0 101823
05:00+3сз227855 0.0 101733
08:00+9з3649100 0.0 1017631
11:00+11зсз576299 0.1 10151269
14:00+13сз474788 0.3 10141958
17:00+14с473673 0.0 10132054
20:00+9с265011 0.0 1015141
14 мая, пт
пт1423:00+4ссз38680 0.0 1017207
02:00+2сз24732 0.0 101785
05:000ссз247829 0.0 1019104
08:00+6с246298 0.1 1020468
11:00+10ююз135295 0.1 10201382
14:00+12ю3545100 0.1 10191308
17:00+11ю344980 0.0 1019545
20:00+5ююв11725 0.0 102010
15 мая, сб
сб1523:00+4ссв22735 0.0 102113
02:00+4с22725 0.0 102115
05:00+2ссв227491 0.0 102212
08:00+8вюв2457100 0.0 1022405
11:00+9вюв3555100 0.0 1022497
14:00+12вюв4445100 0.0 1020775
17:00+8всв4876100 0.6 1020366
20:00+6св3793100 1.8 1022384
16 мая, вс
вс1623:00+4с379468 0.0 1022232
02:00+3с249694 0.1 1022105
05:00+5ссв1493100 0.0 1024160
08:00+6вюв2388100 0.1 1025387
11:00+8юв238077 0.0 1026528
14:00+11юв336230 0.0 1025830
17:00+9вюв446711 0.0 1025467
20:00+4юв129399 0.0 102531
17 мая, пн
пн1723:00+4всв229462 0.0 102632
02:00+4вюв269370 0.0 1025210
05:00+3всв1198100 0.0 102528
08:00+7юв2374100 0.0 1026395
11:00+9юв3470100 0.0 1025546
14:00+13ююв236089 0.0 1022772
17:00+10юв336812 0.0 1022332
20:00+5ююв11935 0.0 102129